Easton, MD

5:47 AM EDT on July 30, 2016 (GMT -0400)
Easton / Newnam

Weather History for KESN - February, 2013

Change the Weather History Date:

Thursday, February 21, 2013

  Actual Average Record
Temperature  
Mean Temperature 32 °F -  
Max Temperature 39 °F 46 °F 66 °F (2014)
Min Temperature 24 °F 25 °F 6 °F (2015)
Degree Days  
Heating Degree Days 34    
Moisture  
Dew Point 16 °F    
Average Humidity 61    
Maximum Humidity 73    
Minimum Humidity 44    
Precipitation  
Precipitation 0.00 in - - ()
Sea Level Pressure  
Sea Level Pressure 30.21 in    
Wind  
Wind Speed 13 mph (NW)    
Max Wind Speed 23 mph    
Max Gust Speed 29 mph    
Visibility 10 miles    
Events      
Averages and records for this station are not official NWS values.
T = Trace of Precipitation, MM = Missing Value Source: NWS Daily Summary

Daily Weather History Graph

Daily Weather History Graph

Search for Another Location

Airport or City:

Trip Planner

Search our weather history database for the weather conditions in past years. The results will help you decide how hot, cold, wet, or windy it might be!

Date:

Astronomy

Feb. 21, 2013 Rise Set
Actual Time 6:47 AM EST 5:48 PM EST
Civil Twilight 6:20 AM EST 6:15 PM EST
Nautical Twilight 5:49 AM EST 6:46 PM EST
Astronomical Twilight 5:18 AM EST 7:17 PM EST
Moon 2:03 PM EST (2/21) 3:48 AM EST (2/21)
Length of Visible Light 11h 55m
Length of Day
11h 01m
Waxing Gibbous, 83% of the Moon is Illuminated
Feb 21
Waxing Gibbous
Feb 25
Full
Mar 4
Last Quarter
Mar 11
New
Mar 19
First Quarter

Hourly Weather History & Observations

Time (EST) Temp. Windchill Dew Point Humidity Pressure Visibility Wind Dir Wind Speed Gust Speed Precip Events Conditions
12:11 AM 26.2 °F 13.4 °F 12.9 °F 57% 30.17 in 10.0 mi NNW 17.3 mph 24.2 mph N/A   Clear
12:31 AM 26.1 °F 13.6 °F 13.3 °F 59% 30.16 in 10.0 mi NW 16.1 mph - N/A   Clear
12:51 AM 25.7 °F 14.6 °F 13.8 °F 61% 30.16 in 10.0 mi NW 12.7 mph 21.9 mph N/A   Clear
1:11 AM 25.5 °F 14.3 °F 14.2 °F 62% 30.16 in 10.0 mi NW 12.7 mph 18.4 mph N/A   Clear
1:31 AM 25.7 °F 14.6 °F 14.2 °F 62% 30.16 in 10.0 mi NW 12.7 mph 18.4 mph N/A   Clear
1:51 AM 25.5 °F 13.3 °F 14.4 °F 63% 30.16 in 10.0 mi NNW 15.0 mph - N/A   Clear
2:11 AM 25.3 °F 15.3 °F 14.4 °F 63% 30.16 in 10.0 mi NW 10.4 mph - N/A   Clear
2:31 AM 25.5 °F 15.5 °F 14.5 °F 63% 30.15 in 10.0 mi NW 10.4 mph 24.2 mph N/A   Clear
2:51 AM 25.5 °F 14.9 °F 14.5 °F 63% 30.16 in 10.0 mi NW 11.5 mph 16.1 mph N/A   Clear
3:11 AM 25.5 °F 15.5 °F 14.5 °F 63% 30.16 in 10.0 mi NW 10.4 mph 18.4 mph N/A   Clear
3:31 AM 25.7 °F 17.1 °F 14.7 °F 63% 30.16 in 10.0 mi NW 8.1 mph - N/A   Clear
3:51 AM 25.5 °F 14.3 °F 14.5 °F 63% 30.15 in 10.0 mi NW 12.7 mph 16.1 mph N/A   Clear
4:11 AM 25.3 °F 14.1 °F 14.4 °F 63% 30.16 in 10.0 mi NW 12.7 mph 18.4 mph N/A   Clear
4:31 AM 25.2 °F 14.4 °F 14.5 °F 64% 30.16 in 10.0 mi NW 11.5 mph 18.4 mph N/A   Clear
4:51 AM 25.3 °F 13.6 °F 14.4 °F 63% 30.17 in 10.0 mi NNW 13.8 mph 18.4 mph N/A   Clear
5:11 AM 24.8 °F 14.6 °F 14.4 °F 65% 30.17 in 10.0 mi NW 10.4 mph - N/A   Clear
5:31 AM 24.8 °F 14.0 °F 14.5 °F 65% 30.18 in 10.0 mi NW 11.5 mph - N/A   Clear
5:52 AM 24.8 °F 12.4 °F 14.5 °F 65% 30.17 in 10.0 mi NNW 15.0 mph 18.4 mph N/A   Clear
5:53 AM 24.8 °F 14.0 °F 14.0 °F 64% 30.18 in 10.0 mi NW 11.5 mph 18.4 mph N/A   Clear
6:12 AM 24.6 °F 13.2 °F 14.7 °F 66% 30.17 in 10.0 mi NNW 12.7 mph - N/A   Clear
6:32 AM 24.6 °F 12.7 °F 14.5 °F 66% 30.18 in 10.0 mi NNW 13.8 mph 20.7 mph N/A   Clear
6:40 AM 24.4 °F 13.0 °F 14.7 °F 67% 30.18 in 10.0 mi NNW 12.7 mph 18.4 mph N/A   Clear
6:53 AM 24.8 °F 12.4 °F 14.0 °F 64% 30.18 in 10.0 mi NW 15.0 mph 20.7 mph N/A   Partly Cloudy
7:53 AM 26.6 °F 14.3 °F 15.8 °F 64% 30.20 in 10.0 mi NW 16.1 mph 21.9 mph N/A   Scattered Clouds
8:53 AM 28.4 °F 16.2 °F 15.8 °F 59% 30.22 in 10.0 mi NNW 17.3 mph 28.8 mph N/A   Mostly Cloudy
9:53 AM 30.2 °F 17.1 °F 15.8 °F 55% 30.22 in 10.0 mi NNW 21.9 mph 28.8 mph N/A   Scattered Clouds
10:53 AM 32.0 °F 20.8 °F 15.8 °F 51% 30.22 in 10.0 mi WNW 17.3 mph 28.8 mph N/A   Partly Cloudy
11:53 AM 35.6 °F 26.6 °F 15.8 °F 44% 30.20 in 10.0 mi WNW 13.8 mph 25.3 mph N/A   Partly Cloudy
12:53 PM 35.6 °F 24.0 °F 17.6 °F 48% 30.19 in 10.0 mi NW 23.0 mph 28.8 mph N/A   Clear
2:54 PM 39.2 °F 31.2 °F 19.4 °F 45% 30.18 in 10.0 mi NW 13.8 mph 24.2 mph N/A   Partly Cloudy
3:58 PM 37.4 °F 28.9 °F 19.4 °F 48% 30.19 in 10.0 mi NNW 13.8 mph 24.2 mph N/A   Clear
4:53 PM 37.4 °F 28.5 °F 19.4 °F 48% 30.20 in 10.0 mi NNW 15.0 mph 21.9 mph N/A   Clear
5:52 PM 33.8 °F 28.6 °F 19.4 °F 56% 30.24 in 10.0 mi North 5.8 mph - N/A   Clear
6:49 PM 32.0 °F 26.4 °F 19.4 °F 60% 30.27 in 10.0 mi NNW 5.8 mph - N/A   Clear
7:50 PM 32.0 °F 27.5 °F 21.2 °F 64% 30.30 in 10.0 mi NNW 4.6 mph - N/A   Clear
8:55 PM 32.0 °F 26.4 °F 19.4 °F 60% 30.32 in 10.0 mi NNW 5.8 mph - N/A   Clear
9:53 PM 31.5 °F 25.8 °F 20.3 °F 63% 30.33 in 10.0 mi North 5.8 mph - N/A   Clear
10:13 PM 31.5 °F 25.8 °F 20.1 °F 63% 30.33 in 10.0 mi NNW 5.8 mph - N/A   Clear
10:34 PM 30.0 °F 24.1 °F 20.5 °F 68% 30.33 in 10.0 mi NW 5.8 mph - N/A   Clear
10:54 PM 30.0 °F 24.1 °F 21.2 °F 70% 30.34 in 10.0 mi NW 5.8 mph - N/A   Clear
11:14 PM 29.1 °F 22.1 °F 21.4 °F 73% 30.34 in 10.0 mi NNW 6.9 mph - N/A   Clear
11:34 PM 30.2 °F 24.3 °F 21.7 °F 71% 30.34 in 10.0 mi North 5.8 mph - N/A   Clear
11:54 PM 30.6 °F 27.1 °F 21.2 °F 68% 30.34 in 10.0 mi North 3.5 mph - N/A   Clear